Flag for United Kingdom

Past Weather in Glasgow, Scotland, United Kingdom — Yesterday and Last 2 Weeks

Now
59 °F

Passing clouds.


Feels Like: 56 °F
Forecast: 58 / 51 °F
Wind: 15 mph from Southwest

Location: Glasgow Airport

Current Time: Jul 13, 2020 at 3:59:45 am

Latest Report: Jul 13, 2020 at 3:20 am


Visibility: N/A

Pressure: 30.09 "Hg

Humidity: 88%

Dew Point: 55 °F

Location of GlasgowLocation

Past Weather in Glasgow — Graph

°F

Glasgow Temperature Yesterday

Maximum temperature yesterday: 68 °F (at 3:50 pm)
Minimum temperature yesterday: 45 °F (at 3:50 am)
Average temperature yesterday: 58 °F

High & Low Weather Summary for the Past Weeks

 TemperatureHumidityPressure
High68 °F (Jul 12, 3:50 pm)100% (Jun 29, 1:20 am)30.33 "Hg (Jun 29, 1:20 am)
Low45 °F (Jul 3, 11:50 pm)52% (Jul 2, 12:50 pm)29.21 "Hg (Jun 28, 3:20 am)
Average55 °F81%29.80 "Hg
* Reported Jun 28 2:20 am — Jul 13 2:50 am, Glasgow. Weather by CustomWeather, © 2020

Note: Actual official high and low records may vary slightly from our data, if they occured in-between our weather recording intervals... More about our weather records

Glasgow Weather History for the Previous 24 Hours

Scroll right to see more
 ConditionsComfort  
Time TempWeatherWind HumidityBarometerVisibility
2:50 am
Mon, Jul 13
59 °FLight rain. Mostly cloudy.15 mph94%30.09 "Hg5 mi
2:20 am59 °FDrizzle. Mostly cloudy.13 mph94%30.09 "Hg2 mi
1:50 am59 °FDrizzle. Mostly cloudy.14 mph94%30.12 "Hg2 mi
12:50 am57 °FDrizzle. Mostly cloudy.10 mph94%30.12 "Hg2 mi
12:20 am57 °FDrizzle. Mostly cloudy.10 mph94%30.12 "Hg2 mi
11:50 pm
Sun, Jul 12
57 °FLight rain. Partly cloudy.8 mph94%30.15 "HgN/A
11:20 pm59 °FLight rain. Passing clouds.13 mph82%30.15 "HgN/A
10:50 pm59 °FMostly cloudy.14 mph77%30.15 "HgN/A
10:20 pm61 °FLight rain. Overcast.12 mph72%30.15 "HgN/A
9:50 pm61 °FLight rain. Overcast.12 mph72%30.18 "HgN/A
9:20 pm61 °FOvercast.10 mph72%30.18 "HgN/A
8:50 pm61 °FOvercast.8 mph72%30.18 "HgN/A
8:20 pm61 °FMostly cloudy.13 mph68%30.18 "HgN/A
7:50 pm61 °FMostly cloudy.14 mph68%30.18 "HgN/A
7:20 pm63 °FMild.13 mph64%30.21 "HgN/A
6:50 pm63 °FMild.15 mph64%30.21 "HgN/A
6:20 pm63 °FMild.16 mph59%30.21 "HgN/A
5:50 pm66 °FMild.17 mph52%30.21 "HgN/A
5:20 pm66 °FMild.17 mph52%30.21 "HgN/A
4:50 pm66 °FMild.14 mph56%30.21 "HgN/A
4:20 pm68 °FMild.17 mph53%30.24 "HgN/A
3:50 pm68 °FMild.16 mph53%30.24 "HgN/A
3:20 pm66 °FMild.15 mph56%30.24 "HgN/A
2:50 pm66 °FPassing clouds.16 mph56%30.27 "HgN/A
2:20 pm66 °FScattered clouds.18 mph56%30.27 "HgN/A
1:50 pm66 °FBroken clouds.15 mph60%30.27 "HgN/A
1:20 pm64 °FBroken clouds.13 mph64%30.27 "HgN/A
12:50 pm64 °FScattered clouds.16 mph60%30.27 "HgN/A
12:20 pm63 °FScattered clouds.10 mph64%30.27 "HgN/A
11:50 am63 °FPassing clouds.13 mph68%30.27 "HgN/A
11:20 am64 °FMild.12 mph60%30.27 "HgN/A
10:50 am63 °FMild.9 mph68%30.30 "HgN/A
10:20 am61 °FPassing clouds.9 mph68%30.30 "HgN/A
9:50 am59 °FBroken clouds.6 mph72%30.30 "HgN/A
9:20 am57 °FPartly sunny.3 mph77%30.30 "HgN/A
8:50 am55 °FPartly sunny.3 mph77%30.30 "HgN/A
8:20 am55 °FPartly sunny.2 mph72%30.30 "HgN/A
7:50 am54 °FPartly sunny.1 mph82%30.30 "HgN/A
7:20 am52 °FPartly sunny.2 mph88%30.30 "HgN/A
6:50 am50 °FOvercast.2 mph88%30.30 "HgN/A
6:20 am48 °FOvercast.2 mph94%30.30 "HgN/A
5:50 am46 °FOvercast.2 mph93%30.30 "HgN/A
5:20 am46 °FPartly sunny.2 mph87%30.30 "HgN/A
4:50 am45 °FQuite cool.5 mph87%30.30 "HgN/A
4:20 am48 °FPassing clouds.7 mph87%30.30 "HgN/A
3:50 am45 °FPassing clouds.7 mph93%30.30 "HgN/A
3:20 am48 °FPassing clouds.6 mph87%30.30 "HgN/A
Weather by CustomWeather, © 2020

See weather overview